TimeCST,TemperatureF,Dew PointF,Humidity,Sea Level PressureIn,VisibilityMPH,Wind Direction,Wind SpeedMPH,Gust SpeedMPH,PrecipitationIn,Events,Conditions,WindDirDegrees,DateUTC
12:15 AM,26.6,19.4,74,30.24,10.0,ESE,6.9,-,N/A,,Clear,120,2013-01-23 06:15:00
12:35 AM,26.6,19.4,74,30.23,10.0,ESE,8.1,-,N/A,,Clear,120,2013-01-23 06:35:00
12:55 AM,26.6,19.4,74,30.23,10.0,ESE,6.9,-,N/A,,Clear,120,2013-01-23 06:55:00
1:15 AM,26.6,19.4,74,30.22,10.0,ESE,6.9,-,N/A,,Clear,120,2013-01-23 07:15:00
1:35 AM,26.6,19.4,74,30.22,10.0,SE,6.9,-,N/A,,Clear,130,2013-01-23 07:35:00
1:55 AM,26.6,19.4,74,30.22,10.0,SE,6.9,-,N/A,,Clear,130,2013-01-23 07:55:00
2:15 AM,26.6,19.4,74,30.22,10.0,ESE,6.9,-,N/A,,Clear,120,2013-01-23 08:15:00
2:35 AM,26.6,19.4,74,30.22,10.0,SE,5.8,-,N/A,,Clear,130,2013-01-23 08:35:00
2:55 AM,26.6,19.4,74,30.22,10.0,SE,5.8,-,N/A,,Clear,130,2013-01-23 08:55:00
3:15 AM,26.6,19.4,74,30.21,10.0,SE,6.9,-,N/A,,Clear,140,2013-01-23 09:15:00
3:35 AM,26.6,21.2,80,30.21,10.0,SE,4.6,-,N/A,,Clear,140,2013-01-23 09:35:00
3:55 AM,28.4,21.2,74,30.20,10.0,SSE,5.8,-,N/A,,Clear,150,2013-01-23 09:55:00
4:15 AM,28.4,21.2,74,30.20,10.0,SSE,5.8,-,N/A,,Clear,160,2013-01-23 10:15:00
4:35 AM,28.4,23.0,80,30.20,10.0,SE,5.8,-,N/A,,Clear,140,2013-01-23 10:35:00
4:55 AM,30.2,23.0,75,30.20,10.0,SE,5.8,-,N/A,,Clear,140,2013-01-23 10:55:00
5:15 AM,28.4,23.0,80,30.19,10.0,SE,5.8,-,N/A,,Clear,140,2013-01-23 11:15:00
5:35 AM,30.2,23.0,75,30.19,10.0,SE,4.6,-,N/A,,Clear,140,2013-01-23 11:35:00
5:55 AM,28.4,23.0,80,30.20,10.0,SE,4.6,-,N/A,,Clear,130,2013-01-23 11:55:00
6:15 AM,28.4,23.0,80,30.21,10.0,SE,4.6,-,N/A,,Clear,130,2013-01-23 12:15:00
6:35 AM,26.6,21.2,80,30.21,10.0,SE,5.8,-,N/A,,Clear,130,2013-01-23 12:35:00
6:55 AM,28.4,23.0,80,30.21,10.0,ESE,4.6,-,N/A,,Clear,110,2013-01-23 12:55:00
7:15 AM,26.6,23.0,86,30.21,10.0,SE,5.8,-,N/A,,Clear,130,2013-01-23 13:15:00
7:55 AM,28.4,24.8,86,30.22,10.0,SE,3.5,-,N/A,,Clear,130,2013-01-23 13:55:00
8:15 AM,30.2,26.6,86,30.22,10.0,SE,3.5,-,N/A,,Clear,130,2013-01-23 14:15:00
8:35 AM,32.0,26.6,80,30.21,10.0,SSE,4.6,-,N/A,,Clear,150,2013-01-23 14:35:00
9:15 AM,37.4,32.0,81,30.22,10.0,South,5.8,-,N/A,,Clear,190,2013-01-23 15:15:00
9:35 AM,41.0,32.0,70,30.22,10.0,SSW,8.1,-,N/A,,Clear,200,2013-01-23 15:35:00
9:55 AM,42.8,33.8,70,30.22,10.0,SW,8.1,-,N/A,,Clear,220,2013-01-23 15:55:00
10:15 AM,44.6,35.6,71,30.23,10.0,SW,8.1,-,N/A,,Clear,230,2013-01-23 16:15:00
10:35 AM,46.4,35.6,66,30.22,10.0,SW,11.5,-,N/A,,Clear,230,2013-01-23 16:35:00
10:55 AM,46.4,35.6,66,30.21,10.0,WSW,11.5,17.3,N/A,,Clear,240,2013-01-23 16:55:00
11:15 AM,48.2,35.6,62,30.21,10.0,WSW,13.8,-,N/A,,Clear,250,2013-01-23 17:15:00
11:35 AM,50.0,35.6,58,30.20,10.0,WSW,6.9,-,N/A,,Clear,250,2013-01-23 17:35:00
11:55 AM,50.0,37.4,62,30.19,10.0,WSW,9.2,-,N/A,,Clear,240,2013-01-23 17:55:00
12:15 PM,50.0,37.4,62,30.18,10.0,WSW,9.2,-,N/A,,Clear,240,2013-01-23 18:15:00
12:35 PM,51.8,37.4,58,30.16,10.0,SW,10.4,-,N/A,,Clear,230,2013-01-23 18:35:00
12:55 PM,51.8,39.2,62,30.15,10.0,SW,5.8,-,N/A,,Clear,220,2013-01-23 18:55:00
1:15 PM,51.8,37.4,58,30.15,10.0,SW,5.8,-,N/A,,Clear,230,2013-01-23 19:15:00
1:35 PM,53.6,39.2,58,30.15,10.0,West,5.8,-,N/A,,Clear,280,2013-01-23 19:35:00
1:55 PM,53.6,39.2,58,30.14,10.0,WSW,8.1,-,N/A,,Clear,240,2013-01-23 19:55:00
2:15 PM,55.4,41.0,58,30.14,10.0,WSW,5.8,-,N/A,,Clear,250,2013-01-23 20:15:00
2:35 PM,55.4,39.2,54,30.14,10.0,WSW,10.4,-,N/A,,Clear,250,2013-01-23 20:35:00
2:55 PM,57.2,39.2,51,30.14,10.0,West,8.1,-,N/A,,Clear,260,2013-01-23 20:55:00
3:15 PM,57.2,39.2,51,30.14,10.0,West,8.1,-,N/A,,Clear,260,2013-01-23 21:15:00
3:35 PM,55.4,39.2,54,30.14,10.0,WSW,8.1,-,N/A,,Clear,250,2013-01-23 21:35:00
3:55 PM,55.4,39.2,54,30.14,10.0,WSW,6.9,-,N/A,,Clear,250,2013-01-23 21:55:00
4:15 PM,55.4,39.2,54,30.13,10.0,West,5.8,-,N/A,,Clear,260,2013-01-23 22:15:00
4:35 PM,55.4,39.2,54,30.13,10.0,West,5.8,-,N/A,,Clear,270,2013-01-23 22:35:00
4:55 PM,53.6,37.4,54,30.14,10.0,West,4.6,-,N/A,,Clear,260,2013-01-23 22:55:00
5:15 PM,51.8,37.4,58,30.15,10.0,West,5.8,-,N/A,,Clear,270,2013-01-23 23:15:00
5:35 PM,51.8,37.4,58,30.15,10.0,West,4.6,-,N/A,,Clear,280,2013-01-23 23:35:00
5:55 PM,50.0,37.4,62,30.14,10.0,NW,3.5,-,N/A,,Clear,320,2013-01-23 23:55:00
6:15 PM,48.2,37.4,66,30.15,10.0,NW,4.6,-,N/A,,Clear,320,2013-01-24 00:15:00
6:35 PM,46.4,37.4,71,30.15,10.0,NNW,5.8,-,N/A,,Clear,340,2013-01-24 00:35:00
6:55 PM,46.4,37.4,71,30.17,10.0,NNW,6.9,-,N/A,,Clear,340,2013-01-24 00:55:00
7:15 PM,42.8,35.6,76,30.18,10.0,NNE,6.9,-,N/A,,Clear,20,2013-01-24 01:15:00
7:55 PM,42.8,35.6,76,30.20,10.0,NNE,8.1,-,N/A,,Clear,20,2013-01-24 01:55:00
8:35 PM,41.0,33.8,76,30.21,10.0,NNE,8.1,-,N/A,,Clear,20,2013-01-24 02:35:00
8:55 PM,41.0,32.0,70,30.22,10.0,NE,6.9,-,N/A,,Clear,40,2013-01-24 02:55:00
9:15 PM,41.0,32.0,70,30.23,10.0,NNE,9.2,-,N/A,,Clear,30,2013-01-24 03:15:00
9:35 PM,39.2,30.2,70,30.23,10.0,NE,8.1,16.1,N/A,,Clear,40,2013-01-24 03:35:00
9:55 PM,37.4,30.2,75,30.23,10.0,NE,10.4,-,N/A,,Clear,40,2013-01-24 03:55:00
10:15 PM,37.4,28.4,70,30.25,10.0,NE,6.9,-,N/A,,Clear,40,2013-01-24 04:15:00
10:35 PM,37.4,28.4,70,30.25,10.0,NE,8.1,-,N/A,,Clear,40,2013-01-24 04:35:00
10:55 PM,35.6,28.4,75,30.26,10.0,NE,6.9,-,N/A,,Clear,40,2013-01-24 04:55:00
11:15 PM,35.6,28.4,75,30.25,10.0,NE,8.1,-,N/A,,Mostly Cloudy,40,2013-01-24 05:15:00
11:35 PM,35.6,26.6,70,30.27,10.0,NNE,10.4,-,N/A,,Mostly Cloudy,30,2013-01-24 05:35:00
11:55 PM,35.6,26.6,70,30.27,10.0,NE,9.2,-,N/A,,Mostly Cloudy,40,2013-01-24 05:55:00